K4FB Weather Reports


time (UTC)temp
F
wind
direction
speed
knots
gust
knots
rain 1hr
in
rain 24hr
in
rain mn
in
humidity
%
barometer
mb
20260831022012 75 270 0.0 0.0 0.00 0.01 0.01 90 1018.5
20260831021533 75 270 0.0 0.0 0.00 0.01 0.01 89 1018.5
20260831021009 75 270 0.0 0.0 0.00 0.01 0.01 89 1018.5
20260831020512 75 270 0.0 0.0 0.00 0.01 0.01 89 1018.6
20260831020014 75 270 0.0 0.0 0.00 0.01 0.01 89 1018.6
20260831015508 75 270 0.0 0.0 0.00 0.01 0.01 89 1018.6
20260831015008 75 270 0.0 0.0 0.00 0.01 0.01 88 1018.6
20260831014525 75 270 0.0 0.0 0.00 0.01 0.01 89 1018.7
20260831014012 75 270 0.0 0.0 0.00 0.01 0.01 88 1018.7
20260831013507 76 270 0.0 0.0 0.00 0.01 0.01 88 1018.6
20260831013028 76 270 0.0 0.0 0.00 0.01 0.01 88 1018.6
20260831012512 76 270 0.0 0.0 0.00 0.01 0.01 88 1018.7
20260831012007 76 270 0.0 0.0 0.00 0.01 0.01 88 1018.8
20260831011509 76 270 0.0 0.0 0.00 0.01 0.01 88 1018.7
20260831011003 76 270 0.0 0.0 0.00 0.01 0.01 88 1018.7
20260831010504 76 270 0.0 0.0 0.00 0.01 0.01 87 1018.6
20260831010012 77 270 0.0 0.0 0.00 0.01 0.01 87 1018.6
20260831005504 77 270 0.0 0.0 0.00 0.01 0.01 87 1018.6
20260831005004 77 270 0.0 0.0 0.00 0.01 0.01 87 1018.5
20260831004518 77 270 0.0 0.0 0.00 0.01 0.01 86 1018.5
20260831004005 77 270 0.0 0.0 0.00 0.01 0.01 86 1018.5
20260831003509 77 271 0.0 0.0 0.00 0.01 0.01 86 1018.4
20260831003011 77 271 0.0 0.0 0.00 0.01 0.01 85 1018.2
20260831002507 77 271 0.0 0.0 0.00 0.01 0.01 85 1018.3
20260831002012 77 271 0.0 0.0 0.00 0.01 0.01 85 1018.3
20260831001508 77 271 0.0 0.0 0.00 0.01 0.01 84 1018.1
20260831001009 78 222 0.0 0.0 0.00 0.01 0.01 84 1018.0
20260831000508 78 215 0.0 0.0 0.00 0.01 0.01 84 1017.8
20260831000020 78 215 0.0 0.0 0.00 0.01 0.01 84 1017.9
20260830235504 78 215 0.0 0.0 0.00 0.01 0.01 84 1017.8
20260830235005 78 214 0.0 0.0 0.00 0.02 0.01 83 1017.8
20260830234531 78 214 0.0 0.0 0.00 0.02 0.01 84 1017.6
20260830234008 78 214 0.0 0.0 0.00 0.02 0.01 83 1017.4
20260830233504 78 214 0.0 0.0 0.00 0.03 0.01 83 1017.5
20260830233024 78 214 0.0 0.0 0.00 0.03 0.01 83 1017.6
20260830232511 78 214 0.0 0.0 0.00 0.04 0.01 83 1017.5
20260830232007 78 214 0.0 0.0 0.00 0.04 0.01 83 1017.5
20260830231516 78 214 0.0 0.0 0.00 0.04 0.01 83 1017.6
20260830231015 78 214 0.0 0.0 0.00 0.05 0.01 83 1017.6
20260830230515 78 214 0.0 0.0 0.00 0.05 0.01 82 1017.6
20260830230021 79 214 0.0 0.0 0.00 0.05 0.01 82 1017.6
20260830225510 79 214 0.0 0.0 0.00 0.05 0.01 83 1017.6
20260830225003 79 214 0.0 0.0 0.00 0.05 0.01 83 1017.5
20260830224511 79 203 0.0 0.0 0.00 0.05 0.01 83 1017.5
20260830224012 79 203 0.0 0.0 0.00 0.05 0.01 82 1017.6
20260830223504 79 202 0.0 0.9 0.00 0.05 0.01 83 1017.7
20260830223016 79 202 0.0 4.3 0.00 0.05 0.01 83 1017.6
20260830222503 79 207 0.9 4.3 0.00 0.05 0.01 82 1017.7
20260830222019 79 199 0.9 4.3 0.00 0.05 0.01 82 1017.6
20260830221531 79 168 0.0 2.6 0.00 0.05 0.01 83 1017.6
20260830221004 79 196 0.0 2.6 0.00 0.05 0.01 84 1017.6
20260830220506 79 196 0.0 1.7 0.00 0.05 0.01 85 1017.3
20260830220027 79 178 0.0 2.6 0.00 0.05 0.01 85 1017.2
20260830215516 79 188 0.0 3.5 0.00 0.05 0.01 85 1017.2
20260830215005 79 193 0.9 3.5 0.00 0.05 0.01 85 1017.2
20260830214525 79 165 0.0 3.5 0.00 0.06 0.01 86 1017.2
20260830214003 79 172 0.0 4.3 0.00 0.06 0.01 86 1017.3
20260830213505 79 182 0.9 4.3 0.00 0.07 0.01 86 1017.3
20260830213020 79 172 0.0 4.3 0.00 0.26 0.01 86 1017.3
20260830212507 79 165 0.0 1.7 0.00 0.44 0.01 86 1017.3
20260830212008 79 140 0.0 4.3 0.00 0.44 0.01 86 1017.3
20260830211515 79 159 0.0 4.3 0.00 0.44 0.01 86 1017.4
20260830211008 78 190 0.0 5.2 0.00 0.44 0.01 86 1017.4
20260830210514 79 196 0.9 5.2 0.00 0.44 0.01 85 1017.4
20260830210028 79 195 1.7 7.8 0.00 0.44 0.01 85 1017.5
20260830205512 79 188 1.7 7.8 0.00 0.44 0.01 85 1017.6
20260830205015 79 154 0.0 3.5 0.00 0.44 0.01 85 1017.7
20260830204541 79 189 0.0 10.4 0.00 0.44 0.01 85 1017.7
20260830204008 79 167 0.0 11.3 0.00 0.44 0.01 84 1017.6
20260830203516 80 180 4.3 11.3 0.00 0.44 0.01 83 1017.6
20260830203038 81 175 5.2 11.3 0.00 0.44 0.01 83 1017.6
20260830202504 82 189 4.3 10.4 0.00 0.44 0.01 82 1017.6
20260830202008 82 185 3.5 8.7 0.00 0.44 0.01 78 1017.6
20260830201518 83 182 2.6 8.7 0.00 0.44 0.01 76 1017.6
20260830201010 83 99 1.7 8.7 0.00 0.44 0.01 76 1017.5
20260830200503 84 155 2.6 13.0 0.00 0.44 0.01 75 1017.2
20260830200039 85 140 5.2 13.0 0.00 0.44 0.01 75 1017.1
20260830195513 85 90 0.9 9.6 0.00 0.44 0.01 74 1017.0
20260830195017 85 105 0.9 12.2 0.00 0.44 0.01 73 1017.0
20260830194517 86 95 4.3 12.2 0.00 0.44 0.01 72 1017.1
20260830194015 87 119 7.8 12.2 0.00 0.44 0.01 70 1017.1
20260830193517 88 124 7.0 15.6 0.00 0.44 0.01 69 1017.1
20260830193030 89 70 7.8 15.6 0.00 0.44 0.01 67 1017.1
20260830192508 92 72 7.8 15.6 0.00 0.44 0.01 65 1017.2
20260830192016 93 114 3.5 7.0 0.00 0.44 0.01 65 1017.0
20260830191515 94 112 0.0 5.2 0.00 0.44 0.01 66 1016.9
20260830191008 93 61 0.0 6.1 0.00 0.44 0.01 68 1017.0
20260830190509 93 90 0.9 6.1 0.00 0.44 0.01 66 1017.1
20260830190021 93 53 0.0 5.2 0.00 0.44 0.01 67 1017.2
20260830185508 92 23 1.7 4.3 0.00 0.44 0.01 70 1017.3
20260830185011 91 35 0.9 4.3 0.00 0.44 0.01 70 1017.5
20260830184529 91 65 0.0 4.3 0.00 0.44 0.01 69 1017.5
20260830184013 92 70 0.0 7.0 0.00 0.44 0.01 67 1017.5
20260830183508 92 52 2.6 7.0 0.00 0.44 0.01 68 1017.4
20260830183026 92 100 0.0 6.1 0.00 0.44 0.01 69 1017.5
20260830182516 92 75 1.7 6.1 0.00 0.44 0.01 71 1017.6
20260830182015 92 74 0.0 4.3 0.00 0.44 0.01 68 1017.8
20260830181523 92 74 0.0 6.1 0.00 0.44 0.01 69 1017.6
20260830181014 92 74 1.7 6.1 0.00 0.44 0.01 73 1017.7
20260830180523 92 94 0.0 7.0 0.00 0.44 0.01 72 1017.9
20260830180019 91 69 2.6 7.0 0.00 0.44 0.01 71 1018.0
20260830175510 91 51 0.0 3.5 0.00 0.44 0.01 70 1018.0
20260830175013 91 17 0.0 3.5 0.00 0.44 0.01 70 1018.0
20260830174524 92 64 0.0 2.6 0.00 0.44 0.01 70 1018.0
20260830174008 92 5 0.0 3.5 0.00 0.44 0.01 70 1018.1
20260830173517 91 38 0.0 3.5 0.00 0.44 0.01 71 1018.1
20260830173029 91 140 0.0 1.7 0.00 0.44 0.01 73 1018.1
20260830172506 91 66 0.0 3.5 0.00 0.44 0.01 71 1018.3
20260830172020 91 113 0.9 3.5 0.00 0.44 0.01 74 1018.5
20260830171532 91 69 0.0 5.2 0.00 0.44 0.01 76 1018.4
20260830171014 90 346 0.0 5.2 0.00 0.44 0.01 75 1018.5
20260830170508 90 30 0.0 2.6 0.00 0.44 0.01 75 1018.6
20260830170034 90 102 0.0 2.6 0.00 0.44 0.01 77 1018.7
20260830165515 89 168 0.0 1.7 0.00 0.44 0.01 78 1018.7
20260830165017 88 202 0.0 1.7 0.00 0.44 0.01 81 1018.8
20260830164543 87 20 0.0 0.9 0.00 0.44 0.01 81 1018.8
20260830164013 87 84 0.0 0.9 0.00 0.44 0.01 80 1018.8
20260830163510 87 207 0.0 0.0 0.00 0.44 0.01 78 1018.9
20260830163023 87 223 0.0 0.0 0.00 0.44 0.01 79 1018.8
20260830162514 87 200 0.0 0.0 0.00 0.44 0.01 81 1018.9
20260830162018 87 219 0.0 0.9 0.00 0.44 0.01 80 1018.9
20260830161533 87 194 0.0 1.7 0.00 0.44 0.01 81 1018.9
20260830161013 87 198 0.0 1.7 0.00 0.44 0.01 80 1018.8
20260830160503 87 54 0.0 3.5 0.00 0.44 0.01 79 1018.9
20260830160012 87 87 0.0 3.5 0.00 0.44 0.01 81 1018.9
20260830155511 87 97 0.0 1.7 0.00 0.44 0.01 83 1019.1
20260830155005 86 68 0.0 4.3 0.00 0.44 0.01 84 1019.1
20260830154513 85 32 0.0 7.0 0.00 0.44 0.01 85 1019.2
20260830154005 84 126 0.9 7.0 0.00 0.44 0.01 85 1019.0
20260830153509 84 360 0.0 0.0 0.00 0.44 0.01 85 1019.3
20260830153010 84 306 0.0 0.0 0.00 0.44 0.01 86 1019.4
20260830152506 83 336 0.0 0.0 0.00 0.44 0.01 87 1019.3
20260830152003 83 18 0.0 0.0 0.00 0.44 0.01 87 1019.3
20260830151506 83 20 0.0 0.0 0.00 0.44 0.01 87 1019.4
20260830151004 83 87 0.0 0.9 0.00 0.44 0.01 87 1019.5
20260830150503 83 101 0.0 0.9 0.00 0.44 0.01 87 1019.5
20260830150013 83 55 0.0 0.0 0.00 0.44 0.01 88 1019.5
20260830145506 83 55 0.0 0.0 0.00 0.44 0.01 89 1019.6
20260830145003 83 59 0.0 0.0 0.00 0.44 0.01 88 1019.7
20260830144514 83 49 0.0 0.0 0.00 0.44 0.01 89 1019.6
20260830144003 83 32 0.0 0.9 0.00 0.44 0.01 89 1019.6
20260830143504 83 36 0.0 0.9 0.00 0.44 0.01 89 1019.5
20260830143019 82 48 0.0 0.9 0.00 0.44 0.01 91 1019.7
20260830142514 82 95 0.0 0.9 0.00 0.44 0.01 91 1019.7
20260830142004 82 56 0.0 0.9 0.00 0.44 0.01 92 1019.5
20260830141514 81 32 0.0 0.9 0.00 0.44 0.01 93 1019.6
20260830141007 81 40 0.0 0.9 0.00 0.44 0.01 93 1019.6
20260830140507 80 5 0.0 0.9 0.00 0.44 0.01 94 1019.6
20260830140014 80 333 0.0 0.9 0.00 0.44 0.01 94 1019.5
20260830135505 79 36 0.0 0.9 0.00 0.44 0.01 94 1019.5
20260830135011 79 23 0.0 0.9 0.00 0.44 0.01 94 1019.6
20260830134519 79 33 0.0 0.9 0.00 0.44 0.01 94 1019.6
20260830134006 79 24 0.0 1.7 0.00 0.44 0.01 95 1019.5
20260830133509 78 56 0.0 1.7 0.00 0.44 0.01 95 1019.6
20260830133024 78 12 0.0 1.7 0.00 0.44 0.01 95 1019.5
20260830132504 78 36 0.0 1.7 0.00 0.44 0.01 96 1019.4
20260830132010 77 346 0.0 0.9 0.00 0.44 0.01 96 1019.5
20260830131535 77 311 0.0 0.9 0.00 0.44 0.01 96 1019.5
20260830131003 77 350 0.0 0.9 0.00 0.44 0.01 96 1019.5
20260830130509 77 318 0.0 0.9 0.00 0.44 0.01 96 1019.5
20260830130025 77 360 0.0 0.9 0.00 0.44 0.01 96 1019.5
20260830125503 76 329 0.0 0.9 0.00 0.44 0.01 96 1019.5
20260830125003 76 5 0.0 0.9 0.00 0.44 0.01 96 1019.4
20260830124508 76 5 0.0 0.9 0.00 0.44 0.01 96 1019.4
20260830124008 75 10 0.0 0.0 0.00 0.44 0.01 96 1019.4
20260830123504 75 13 0.0 0.0 0.00 0.44 0.01 96 1019.3
20260830123017 75 336 0.0 0.0 0.00 0.44 0.01 96 1019.4
20260830122508 75 336 0.0 0.0 0.00 0.44 0.01 95 1019.3
20260830122008 75 348 0.0 0.0 0.00 0.44 0.01 95 1019.2
20260830121510 74 349 0.0 0.0 0.00 0.44 0.01 95 1019.2
20260830121007 74 352 0.0 0.0 0.00 0.44 0.01 95 1019.1
20260830120511 74 352 0.0 0.9 0.00 0.44 0.01 95 1019.1
20260830120008 74 352 0.0 0.9 0.00 0.44 0.01 95 1019.0
20260830115508 74 238 0.0 0.0 0.00 0.44 0.01 95 1018.8
20260830115013 74 238 0.0 0.0 0.00 0.44 0.01 95 1018.7
20260830114528 73 238 0.0 0.0 0.00 0.44 0.01 95 1018.7
20260830114005 73 238 0.0 0.0 0.00 0.44 0.01 95 1018.6
20260830113506 73 238 0.0 0.0 0.00 0.44 0.01 95 1018.5
20260830113016 73 238 0.0 0.0 0.00 0.44 0.01 95 1018.4
20260830112504 73 238 0.0 0.0 0.00 0.44 0.01 95 1018.4
20260830112006 73 315 0.0 0.0 0.00 0.44 0.01 95 1018.4
20260830111524 73 319 0.0 0.0 0.00 0.44 0.01 95 1018.4
20260830111010 73 319 0.0 0.0 0.00 0.44 0.01 95 1018.2
20260830110504 73 319 0.0 0.0 0.00 0.44 0.01 95 1018.2
20260830110025 73 319 0.0 0.0 0.00 0.44 0.01 95 1018.1
20260830105511 73 311 0.0 0.0 0.00 0.44 0.01 95 1018.1
20260830105012 73 311 0.0 0.0 0.00 0.44 0.01 95 1018.0
20260830104516 73 311 0.0 0.0 0.00 0.44 0.01 95 1017.9
20260830104011 73 311 0.0 0.0 0.00 0.44 0.01 95 1017.8
20260830103512 73 311 0.0 0.0 0.00 0.44 0.01 95 1017.7
20260830103013 73 311 0.0 0.0 0.00 0.44 0.01 95 1017.5
20260830102504 73 311 0.0 0.0 0.00 0.44 0.01 95 1017.5
20260830102009 73 311 0.0 0.0 0.00 0.44 0.01 95 1017.6
20260830101519 73 311 0.0 0.0 0.00 0.44 0.01 95 1017.6
20260830101009 73 311 0.0 0.0 0.00 0.44 0.01 95 1017.5
20260830100510 73 311 0.0 0.0 0.00 0.44 0.01 95 1017.5
20260830100028 73 311 0.0 0.0 0.00 0.44 0.01 95 1017.4
20260830095503 73 311 0.0 0.0 0.00 0.45 0.01 95 1017.4
20260830095009 73 288 0.0 0.0 0.00 0.45 0.01 95 1017.4
20260830094529 73 283 0.0 0.0 0.00 0.45 0.01 95 1017.5
20260830094013 73 282 0.0 0.0 0.00 0.45 0.01 95 1017.4
20260830093508 73 282 0.0 0.0 0.00 0.45 0.01 95 1017.3
20260830093026 73 282 0.0 0.0 0.00 0.45 0.01 95 1017.3
20260830092513 73 282 0.0 0.0 0.00 0.45 0.01 94 1017.2
20260830092015 73 282 0.0 0.0 0.00 0.45 0.01 94 1017.2
20260830091518 73 282 0.0 0.0 0.00 0.45 0.01 94 1017.3
20260830091006 73 282 0.0 0.0 0.00 0.45 0.01 94 1017.3
20260830090506 73 282 0.0 0.0 0.00 0.45 0.01 94 1017.3
20260830090018 73 282 0.0 0.0 0.00 0.45 0.01 94 1017.3
20260830085512 73 282 0.0 0.0 0.00 0.45 0.01 94 1017.2
20260830085009 73 282 0.0 0.0 0.00 0.45 0.01 94 1017.3
20260830084531 73 282 0.0 0.0 0.00 0.45 0.01 94 1017.4
20260830084010 73 282 0.0 0.0 0.00 0.45 0.01 94 1017.4
20260830083517 73 282 0.0 0.0 0.00 0.45 0.01 94 1017.4
20260830083034 73 282 0.0 0.0 0.00 0.45 0.01 94 1017.6
20260830082504 73 282 0.0 0.0 0.00 0.45 0.01 94 1017.6
20260830082008 73 282 0.0 0.0 0.00 0.45 0.01 94 1017.6
20260830081533 73 282 0.0 0.0 0.00 0.45 0.01 94 1017.6
20260830081013 73 282 0.0 0.0 0.00 0.45 0.01 94 1017.8
20260830080508 73 282 0.0 0.0 0.00 0.45 0.01 94 1017.8
20260830080020 73 282 0.0 0.0 0.00 0.45 0.01 94 1017.8
20260830075511 73 282 0.0 0.0 0.00 0.45 0.01 94 1017.9
20260830075009 73 282 0.0 0.0 0.00 0.45 0.01 94 1017.9
20260830074528 73 282 0.0 0.0 0.00 0.45 0.01 94 1018.0
20260830074012 73 282 0.0 0.0 0.00 0.45 0.01 94 1018.1
20260830073513 73 282 0.0 0.0 0.00 0.45 0.01 94 1018.2
20260830073025 74 282 0.0 0.0 0.00 0.45 0.01 94 1018.2
20260830072514 74 282 0.0 0.0 0.00 0.45 0.01 94 1018.2
20260830072014 74 282 0.0 0.0 0.00 0.45 0.01 94 1018.3
20260830071537 74 282 0.0 0.0 0.00 0.45 0.01 94 1018.4
20260830071012 74 282 0.0 0.0 0.00 0.45 0.01 94 1018.4
20260830070513 74 282 0.0 0.0 0.00 0.45 0.01 94 1018.4
20260830070034 74 282 0.0 0.0 0.00 0.45 0.01 94 1018.3
20260830065509 73 282 0.0 0.0 0.00 0.45 0.01 94 1018.3
20260830065008 73 282 0.0 0.0 0.00 0.45 0.01 94 1018.2
20260830064524 73 282 0.0 0.0 0.00 0.45 0.01 94 1018.3
20260830064011 73 282 0.0 0.0 0.01 0.45 0.01 94 1018.4
20260830063510 73 282 0.0 0.0 0.01 0.45 0.01 94 1018.6
20260830063031 73 282 0.0 0.0 0.01 0.45 0.01 94 1018.7
20260830062517 73 282 0.0 0.0 0.01 0.45 0.01 94 1018.7
20260830062008 73 282 0.0 0.0 0.01 0.45 0.01 93 1018.6
20260830061528 73 282 0.0 0.0 0.01 0.45 0.01 93 1018.4
20260830061013 73 282 0.0 0.0 0.01 0.45 0.01 93 1018.4
20260830060504 74 282 0.0 0.0 0.01 0.45 0.01 93 1018.6
20260830060015 74 282 0.0 0.0 0.01 0.45 0.01 93 1018.6
20260830055505 74 282 0.0 0.0 0.01 0.45 0.01 93 1018.5
20260830055004 74 282 0.0 0.0 0.01 0.45 0.01 93 1018.5
20260830054519 74 282 0.0 0.0 0.01 0.45 0.01 93 1018.5
20260830054003 74 282 0.0 0.0 0.00 0.44 0.00 93 1018.7
20260830053504 74 282 0.0 0.0 0.00 0.44 0.00 94 1018.7
20260830053019 74 282 0.0 0.0 0.00 0.44 0.00 93 1018.7
20260830052510 74 282 0.0 0.0 0.00 0.44 0.00 93 1018.8
20260830052003 74 282 0.0 0.0 0.00 0.44 0.00 93 1018.7
20260830051504 74 282 0.0 0.0 0.00 0.44 0.00 93 1018.9
20260830051004 74 282 0.0 0.0 0.00 0.44 0.00 93 1019.0
20260830050504 74 282 0.0 0.0 0.00 0.44 0.00 93 1018.9
20260830050011 74 282 0.0 0.0 0.00 0.44 0.00 93 1019.1
20260830045506 74 282 0.0 0.0 0.00 0.44 0.00 93 1019.1
20260830045006 74 282 0.0 0.0 0.00 0.44 0.00 93 1019.2
20260830044510 74 282 0.0 0.0 0.00 0.44 0.00 93 1019.2
20260830044004 75 282 0.0 0.0 0.00 0.44 0.00 93 1019.1
20260830043510 75 282 0.0 0.0 0.00 0.44 0.00 93 1019.2
20260830043025 75 282 0.0 0.0 0.00 0.44 0.00 93 1019.2
20260830042503 75 282 0.0 0.0 0.00 0.44 0.00 93 1019.2
20260830042009 75 282 0.0 0.0 0.00 0.44 0.00 93 1019.2
20260830041535 75 282 0.0 0.0 0.00 0.44 0.00 93 1019.2
20260830041002 75 282 0.0 0.0 0.00 0.44 0.00 93 1019.4
20260830040502 75 282 0.0 0.0 0.00 0.44 0.00 93 1019.5
20260830040013 75 282 0.0 0.0 0.00 0.44 0.00 93 1019.6
20260830035504 75 282 0.0 0.0 0.00 0.44 0.44 93 1019.5
20260830035004 75 282 0.0 0.0 0.00 0.44 0.44 93 1019.3
20260830034514 75 282 0.0 0.0 0.00 0.44 0.44 93 1019.4
20260830034004 75 282 0.0 0.0 0.00 0.44 0.44 93 1019.4
20260830033505 75 282 0.0 0.9 0.00 0.44 0.44 93 1019.3
20260830033017 75 281 0.0 1.7 0.00 0.44 0.44 93 1019.1
20260830032510 75 258 0.0 2.6 0.00 0.44 0.44 93 1019.1
20260830032009 75 244 0.0 3.5 0.00 0.44 0.44 93 1019.3
20260830031513 76 257 0.0 3.5 0.00 0.44 0.44 93 1019.2
20260830031012 75 250 0.0 2.6 0.00 0.44 0.44 93 1019.2
20260830030513 75 252 0.9 2.6 0.00 0.44 0.44 93 1019.3
20260830030010 75 244 0.0 2.6 0.00 0.44 0.44 93 1019.4
20260830025503 76 244 0.0 1.7 0.00 0.44 0.44 93 1019.4
20260830025003 76 239 0.0 1.7 0.00 0.44 0.44 93 1019.4
20260830024512 76 17 0.0 0.0 0.00 0.44 0.44 93 1019.3
20260830024003 76 17 0.0 0.0 0.00 0.44 0.44 93 1019.5
20260830023503 76 17 0.0 0.0 0.00 0.44 0.44 93 1019.5
20260830023018 75 17 0.0 0.0 0.00 0.44 0.44 93 1019.4
20260830022508 76 17 0.0 0.0 0.00 0.44 0.44 93 1019.4